Home   Weather   Frankfort   Past weeks

Flag for USA Past Weather in Frankfort, Kentucky, USA — Yesterday and Last 2 Weeks

Now
60 °F

Passing clouds.


Feels Like: 60 °F
Forecast: 58 / 71 °F
Wind: 9 mph from South

Location: Capital City Airport

Current Time: Feb 23, 2017 at 2:20:14 am

Latest Report: Feb 23, 2017 at 1:53 am


Visibility: 10 mi

Pressure: 29.78 "Hg

Humidity: 78%

Dew Point: 53 °F

Location of FrankfortLocation

Past Weather in Frankfort — Graph

°F

Frankfort Temperature Yesterday

Maximum temperature yesterday: 69 °F (at 3:24 pm)
Minimum temperature yesterday: 56 °F (at 7:53 am)
Average temperature yesterday: 61 °F

High & Low Weather Summary for the Past Weeks

 TemperatureHumidityPressure
High72 °F (Feb 21, 11:53 am)93% (Feb 20, 12:53 am)30.43 "Hg (Feb 20, 12:53 am)
Low18 °F (Feb 10, 1:53 am)18% (Feb 16, 3:53 pm)29.68 "Hg (Feb 8, 12:53 am)
Average48 °F62%29.98 "Hg
* Reported Feb 8 12:18 am — Feb 23 12:53 am, Frankfort, Weather by CustomWeather, © 2017

Note: Actual official high and low records may vary slightly from our data, if they occured in-between our weather recording intervals... More about our weather records

Advertising

Frankfort Weather History for the Previous 24 Hours

Scroll right to see more
 ConditionsComfort  
Time TempWeatherWind HumidityBarometerVisibility
12:53 am
Thu, Feb 23
62 °FOvercast.9 mph75%29.79 "Hg10 mi
11:53 pm
Wed, Feb 22
63 °FOvercast.8 mph73%29.80 "Hg10 mi
10:53 pm62 °FOvercast.6 mph75%29.81 "Hg10 mi
9:53 pm63 °FOvercast.5 mph73%29.82 "Hg10 mi
8:53 pm64 °FMostly cloudy.3 mph70%29.82 "Hg10 mi
7:53 pm64 °FOvercast.No wind70%29.81 "Hg10 mi
6:53 pm66 °FOvercast.6 mph65%29.80 "Hg10 mi
5:53 pm68 °FOvercast.9 mph61%29.79 "Hg10 mi
4:53 pm69 °FPartly sunny.9 mph61%29.78 "Hg10 mi
4:09 pm68 °FOvercast.9 mph61%29.81 "Hg10 mi
3:53 pm69 °FOvercast.12 mph59%29.80 "Hg10 mi
3:24 pm69 °FPartly sunny.12 mph61%29.82 "Hg10 mi
2:53 pm68 °FPartly sunny.7 mph63%29.82 "Hg10 mi
1:53 pm67 °FOvercast.8 mph66%29.84 "Hg10 mi
1:21 pm66 °FPartly sunny.8 mph68%29.86 "Hg10 mi
12:53 pm66 °FScattered clouds.9 mph68%29.86 "Hg10 mi
11:53 am63 °FOvercast.8 mph75%29.89 "Hg10 mi
10:53 am60 °FOvercast.9 mph80%29.91 "Hg10 mi
9:53 am58 °FCloudy.7 mph84%29.92 "Hg7 mi
8:53 am57 °FFog.3 mph90%29.93 "Hg5 mi
7:53 am56 °FFog.No wind90%29.93 "Hg4 mi
6:53 am57 °FFog.No wind87%29.91 "Hg6 mi
5:53 am57 °FOvercast.3 mph87%29.90 "Hg8 mi
4:53 am57 °FMostly cloudy.No wind87%29.90 "Hg8 mi
4:39 am57 °FMostly cloudy.No wind87%29.91 "Hg7 mi
3:53 am57 °FOvercast.No wind90%29.90 "Hg7 mi
3:07 am57 °FOvercast.8 mph90%29.91 "Hg7 mi
2:53 am57 °FFog.10 mph90%29.90 "Hg6 mi
2:35 am57 °FOvercast.5 mph90%29.93 "Hg7 mi
2:19 am57 °FMostly cloudy.6 mph90%29.94 "Hg8 mi
Weather by CustomWeather, © 2017

See weather overviewHow to use our weather pages